Regional Weather Roundup
Issued by NWS Bismarck, ND

Home | Current Version | Previous Version | Text Only | Print | Product List | Glossary On
Versions: 1 2 3 4 5 6 7 8 9 10 11 12 13 14 15 16 17 18 19 20 21 22 23 24 25 26 27 28 29 30 31 32 33 34 35 36 37 38 39 40 41 42 43 44 45 46 47 48 49 50
000
ASUS43 KBIS 021210
RWRBIS

NWR BROADCAST TEXT
NATIONAL WEATHER SERVICE BISMARCK ND
700 AM CDT SUN AUG 02 2015

NOTE: "FAIR" INDICATES FEW OR NO CLOUDS BELOW 12,000 FEET WITH NO
SIGNIFICANT WEATHER AND/OR OBSTRUCTIONS TO VISIBILITY.


CITY           SKY/WX    TMP DP  RH WIND       PRES   REMARKS
WILLISTON      CLEAR     54  50  86 CALM      29.96R
MINOT          CLEAR     59  53  80 W10       29.88R
MINOT AFB      CLEAR     58  56  94 NW9       29.87R
BISMARCK       CLEAR     62  55  77 NW8       29.88R
DICKINSON      CLEAR     50  48  93 W6        29.93R
GARRISON         N/A     59  55  87 N12       29.88R
HETTINGER ARPT CLEAR     51  48  89 NW6       29.95R
JAMESTOWN      CLEAR     63  58  83 NW14      29.78R
BEACH          FAIR      48  48 100 NW5       29.99R
CROSBY         FAIR      55  55 100 NW9       29.96R
HARVEY         FAIR      59  59 100 NW12      29.84R
HAZEN          FAIR      57  55  94 W7        29.91R
LINTON         FAIR      57  57 100 SW6       29.86R
MANDAN         FAIR      59  54  82 NW10      29.89R
OAKES            N/A     64  63  94 N13       29.73R
STANLEY        FAIR      55  55 100 NW7       29.94R
$$

CITY           SKY/WX    TMP DP  RH WIND       PRES   REMARKS
GRAND FORKS    PTCLDY    61  59  93 NW10      29.71R
GRAND FORKS AF PTCLDY    62  59  91 N13       29.73R
DEVILS LAKE    PTCLDY    61  54  77 NW10      29.79R
FARGO          MOCLDY    68  61  78 N14       29.67R
CAVALIER       PTSUNNY   63  61  94 NW8       29.75R
GRAFTON        CLOUDY    63  61  94 N9        29.74R
GWINNER          N/A     64  61  88 NW16G24   29.70R
LANGDON        CLOUDY    59  59 100 NW7       29.79R
ROLLA          FAIR      55  55 100 NW12      29.85R
WALHALLA       FAIR      63  63 100 MISG      29.77R
$$

CITY           SKY/WX    TMP DP  RH WIND       PRES   REMARKS
ABERDEEN       CLEAR     67  56  67 NW16      29.73R
MOBRIDGE       CLEAR     68  59  73 N14G23    29.79R
BUFFALO          N/A     60  50  69 N13       29.91R
RAPID CITY     CLEAR     64  52  64 N12       29.92R
GLASGOW        CLEAR     58  51  78 N6        30.00R
SIDNEY         CLEAR     55  50  82 NW3       29.96R
WOLF POINT     PTCLDY    54  51  90 SW3       30.00R
GLENDIVE         N/A    N/A N/A N/A MISG        N/A
MILES CITY     CLEAR     61  53  75 NE13      29.95S
BAKER          CLEAR     52  48  86 CALM      29.99R
$$

CITY           SKY/WX    TMP DP  RH WIND       PRES   REMARKS
BILLINGS       PTCLDY    63  37  38 NW10      29.99R
GREAT FALLS    CLEAR     53  47  79 W8        30.05R
REGINA         PTCLDY    52  52 100 W7        29.98R
ESTEVAN        PTCLDY    52  52 100 W8        29.94R
$$



USA.gov is the U.S. government's official web portal to all federal, state and local government web resources and services.